| time (UTC) | temp C | wind direction | speed KPH | gust KPH | rain 1hr cm | rain 24hr cm | rain mn cm | humidity % | barometer mb |
| 20260906064805 | 27 | 219 | 0.0 | 4.8 | 0.00 | 0.00 | 0.00 | 81 | 1008.7 |
| 20260906064306 | 27 | 257 | 0.0 | 4.8 | 0.00 | 0.00 | 0.00 | 81 | 1009.0 |
| 20260906063805 | 27 | 124 | 3.2 | 3.2 | 0.00 | 0.00 | 0.00 | 80 | 1009.0 |
| 20260906063305 | 27 | 115 | 1.6 | 4.8 | 0.00 | 0.00 | 0.00 | 81 | 1009.0 |
| 20260906062805 | 27 | 119 | 3.2 | 4.8 | 0.00 | 0.00 | 0.00 | 81 | 1009.0 |
| 20260906062306 | 27 | 183 | 1.6 | 6.4 | 0.00 | 0.00 | 0.00 | 79 | 1009.0 |
| 20260906061806 | 27 | 246 | 3.2 | 6.4 | 0.00 | 0.00 | 0.00 | 80 | 1009.0 |
| 20260906061305 | 27 | 255 | 4.8 | 6.4 | 0.00 | 0.00 | 0.00 | 80 | 1009.0 |
| 20260906060805 | 28 | 268 | 4.8 | 6.4 | 0.00 | 0.00 | 0.00 | 78 | 1008.7 |
| 20260906060306 | 27 | 284 | 6.4 | 6.4 | 0.00 | 0.00 | 0.00 | 80 | 1008.3 |
| 20260906055806 | 26 | 279 | 6.4 | 8.0 | 0.00 | 0.00 | 0.00 | 84 | 1009.0 |
| 20260906055306 | 26 | 260 | 4.8 | 9.7 | 0.00 | 0.00 | 0.00 | 85 | 1008.7 |
| 20260906054805 | 26 | 266 | 4.8 | 11.3 | 0.00 | 0.00 | 0.00 | 86 | 1008.7 |
| 20260906054305 | 27 | 242 | 8.0 | 11.3 | 0.00 | 0.00 | 0.00 | 83 | 1008.7 |
| 20260906053805 | 27 | 232 | 3.2 | 9.7 | 0.00 | 0.00 | 0.00 | 80 | 1008.7 |
| 20260906053306 | 27 | 210 | 4.8 | 9.7 | 0.00 | 0.00 | 0.00 | 78 | 1008.7 |
| 20260906052805 | 28 | 202 | 1.6 | 6.4 | 0.00 | 0.00 | 0.00 | 75 | 1008.7 |
| 20260906052306 | 28 | 98 | 1.6 | 6.4 | 0.00 | 0.00 | 0.00 | 73 | 1008.7 |
| 20260906051806 | 28 | 66 | 6.4 | 6.4 | 0.00 | 0.00 | 0.00 | 73 | 1008.7 |
| 20260906051305 | 28 | 80 | 3.2 | 4.8 | 0.00 | 0.00 | 0.00 | 74 | 1009.0 |
| 20260906050806 | 28 | 57 | 3.2 | 6.4 | 0.00 | 0.00 | 0.00 | 73 | 1009.0 |
| 20260906050305 | 28 | 71 | 4.8 | 6.4 | 0.00 | 0.00 | 0.00 | 74 | 1009.0 |
| 20260906045806 | 28 | 55 | 4.8 | 6.4 | 0.00 | 0.00 | 0.00 | 73 | 1009.4 |
| 20260906045306 | 29 | 53 | 3.2 | 6.4 | 0.00 | 0.00 | 0.00 | 71 | 1009.0 |
| 20260906044805 | 29 | 33 | 6.4 | 8.0 | 0.00 | 0.00 | 0.00 | 70 | 1009.0 |
| 20260906044305 | 30 | 104 | 1.6 | 8.0 | 0.00 | 0.00 | 0.00 | 68 | 1009.4 |
| 20260906043805 | 29 | 106 | 6.4 | 8.0 | 0.00 | 0.00 | 0.00 | 70 | 1009.4 |
| 20260906043306 | 29 | 97 | 6.4 | 6.4 | 0.00 | 0.00 | 0.00 | 70 | 1009.4 |
| 20260906042806 | 29 | 102 | 4.8 | 9.7 | 0.00 | 0.00 | 0.00 | 71 | 1009.4 |
| 20260906042306 | 29 | 127 | 4.8 | 11.3 | 0.00 | 0.00 | 0.00 | 72 | 1009.4 |
| 20260906041805 | 29 | 114 | 8.0 | 14.5 | 0.00 | 0.00 | 0.00 | 73 | 1009.0 |
| 20260906041305 | 29 | 102 | 6.4 | 14.5 | 0.00 | 0.00 | 0.00 | 72 | 1009.4 |
| 20260906040806 | 29 | 104 | 12.9 | 14.5 | 0.00 | 0.00 | 0.00 | 72 | 1009.4 |
| 20260906040305 | 29 | 117 | 8.0 | 11.3 | 0.00 | 0.00 | 0.00 | 72 | 1009.0 |
| 20260906035806 | 29 | 126 | 8.0 | 8.0 | 0.00 | 0.00 | 0.00 | 71 | 1009.0 |
| 20260906035306 | 29 | 123 | 6.4 | 8.0 | 0.00 | 0.00 | 0.00 | 72 | 1009.0 |
| 20260906034805 | 29 | 132 | 4.8 | 8.0 | 0.00 | 0.00 | 0.00 | 72 | 1009.0 |
| 20260906034305 | 28 | 122 | 6.4 | 6.4 | 0.00 | 0.00 | 0.00 | 72 | 1009.0 |
| 20260906033805 | 29 | 141 | 3.2 | 4.8 | 0.00 | 0.00 | 0.00 | 72 | 1009.0 |
| 20260906033306 | 29 | 140 | 3.2 | 4.8 | 0.00 | 0.00 | 0.00 | 71 | 1009.0 |
| 20260906032805 | 29 | 60 | 3.2 | 4.8 | 0.00 | 0.00 | 0.00 | 70 | 1009.0 |
| 20260906032306 | 30 | 157 | 0.0 | 4.8 | 0.00 | 0.00 | 0.00 | 69 | 1009.4 |
| 20260906031805 | 30 | 315 | 1.6 | 6.4 | 0.00 | 0.00 | 0.00 | 69 | 1009.0 |
| 20260906031305 | 30 | 308 | 3.2 | 6.4 | 0.00 | 0.00 | 0.00 | 67 | 1009.0 |
| 20260906030805 | 30 | 320 | 3.2 | 4.8 | 0.00 | 0.00 | 0.00 | 65 | 1009.0 |
| 20260906030305 | 31 | 331 | 0.0 | 3.2 | 0.00 | 0.00 | 0.00 | 63 | 1008.7 |
| 20260906025805 | 31 | 349 | 0.0 | 3.2 | 0.00 | 0.00 | 0.00 | 63 | 1009.0 |
| 20260906025306 | 31 | 77 | 0.0 | 4.8 | 0.00 | 0.00 | 0.00 | 62 | 1008.7 |
| 20260906024805 | 31 | 132 | 1.6 | 6.4 | 0.00 | 0.00 | 0.00 | 61 | 1008.7 |
| 20260906024305 | 32 | 43 | 3.2 | 8.0 | 0.00 | 0.00 | 0.00 | 59 | 1008.7 |
| 20260906023805 | 32 | 50 | 6.4 | 8.0 | 0.00 | 0.00 | 0.00 | 57 | 1008.7 |
| 20260906023305 | 32 | 41 | 8.0 | 9.7 | 0.00 | 0.00 | 0.00 | 57 | 1008.3 |
| 20260906022806 | 32 | 35 | 8.0 | 9.7 | 0.00 | 0.00 | 0.00 | 57 | 1008.7 |
| 20260906022307 | 32 | 38 | 8.0 | 9.7 | 0.00 | 0.00 | 0.00 | 57 | 1008.3 |
| 20260906021805 | 32 | 36 | 8.0 | 9.7 | 0.00 | 0.00 | 0.00 | 57 | 1008.3 |
| 20260906021305 | 32 | 39 | 8.0 | 8.0 | 0.00 | 0.00 | 0.00 | 57 | 1008.3 |
| 20260906020805 | 32 | 45 | 8.0 | 8.0 | 0.00 | 0.00 | 0.00 | 59 | 1008.3 |
| 20260906020305 | 32 | 62 | 4.8 | 8.0 | 0.00 | 0.00 | 0.00 | 59 | 1008.0 |
| 20260906015806 | 32 | 59 | 4.8 | 8.0 | 0.00 | 0.00 | 0.00 | 58 | 1008.0 |
| 20260906015306 | 32 | 42 | 6.4 | 8.0 | 0.00 | 0.00 | 0.00 | 55 | 1008.0 |
| 20260906014805 | 32 | 44 | 6.4 | 8.0 | 0.00 | 0.00 | 0.00 | 55 | 1008.0 |
| 20260906014304 | 32 | 47 | 6.4 | 6.4 | 0.00 | 0.00 | 0.00 | 55 | 1008.0 |
| 20260906013805 | 32 | 53 | 4.8 | 6.4 | 0.00 | 0.00 | 0.00 | 55 | 1008.0 |
| 20260906013306 | 32 | 55 | 4.8 | 6.4 | 0.00 | 0.00 | 0.00 | 55 | 1008.0 |
| 20260906012805 | 32 | 47 | 3.2 | 6.4 | 0.00 | 0.00 | 0.00 | 56 | 1008.0 |
| 20260906012306 | 33 | 51 | 4.8 | 6.4 | 0.00 | 0.00 | 0.00 | 55 | 1008.3 |
| 20260906011805 | 33 | 68 | 4.8 | 6.4 | 0.00 | 0.00 | 0.00 | 55 | 1008.0 |
| 20260906011305 | 33 | 84 | 4.8 | 8.0 | 0.00 | 0.00 | 0.00 | 55 | 1008.0 |
| 20260906010805 | 33 | 86 | 6.4 | 8.0 | 0.00 | 0.00 | 0.00 | 55 | 1007.6 |
| 20260906010305 | 33 | 68 | 6.4 | 8.0 | 0.00 | 0.00 | 0.00 | 55 | 1008.0 |
| 20260906005805 | 33 | 66 | 6.4 | 6.4 | 0.00 | 0.00 | 0.00 | 54 | 1008.0 |
| 20260906005306 | 33 | 69 | 4.8 | 8.0 | 0.00 | 0.00 | 0.00 | 53 | 1007.6 |
| 20260906004805 | 33 | 62 | 4.8 | 8.0 | 0.00 | 0.00 | 0.00 | 54 | 1007.6 |
| 20260906004306 | 33 | 62 | 6.4 | 8.0 | 0.00 | 0.00 | 0.00 | 52 | 1007.3 |
| 20260906003804 | 33 | 40 | 6.4 | 6.4 | 0.00 | 0.00 | 0.00 | 53 | 1007.6 |
| 20260906003305 | 33 | 42 | 3.2 | 6.4 | 0.00 | 0.00 | 0.00 | 54 | 1007.3 |
| 20260906002805 | 33 | 41 | 4.8 | 6.4 | 0.00 | 0.00 | 0.00 | 53 | 1007.3 |
| 20260906002306 | 33 | 47 | 6.4 | 6.4 | 0.00 | 0.00 | 0.00 | 52 | 1007.6 |
| 20260906001805 | 33 | 58 | 4.8 | 6.4 | 0.00 | 0.00 | 0.00 | 52 | 1007.6 |
| 20260906001306 | 33 | 48 | 4.8 | 8.0 | 0.00 | 0.00 | 0.00 | 52 | 1007.6 |
| 20260906000805 | 33 | 37 | 6.4 | 6.4 | 0.00 | 0.00 | 0.00 | 51 | 1007.3 |
| 20260906000304 | 34 | 64 | 4.8 | 8.0 | 0.00 | 0.00 | 0.00 | 51 | 1007.6 |
| 20260905235805 | 34 | 68 | 3.2 | 8.0 | 0.00 | 0.00 | 0.00 | 50 | 1007.6 |
| 20260905235306 | 34 | 36 | 6.4 | 8.0 | 0.00 | 0.00 | 0.00 | 50 | 1007.6 |
| 20260905234805 | 34 | 38 | 6.4 | 12.9 | 0.00 | 0.00 | 0.00 | 50 | 1008.0 |
| 20260905234306 | 34 | 106 | 4.8 | 12.9 | 0.00 | 0.00 | 0.00 | 50 | 1007.6 |
| 20260905233805 | 35 | 71 | 4.8 | 11.3 | 0.00 | 0.00 | 0.00 | 49 | 1007.6 |
| 20260905233305 | 34 | 42 | 4.8 | 14.5 | 0.00 | 0.00 | 0.00 | 49 | 1008.0 |
| 20260905232805 | 35 | 42 | 6.4 | 14.5 | 0.00 | 0.00 | 0.00 | 49 | 1008.0 |
| 20260905232306 | 35 | 114 | 8.0 | 11.3 | 0.00 | 0.00 | 0.00 | 48 | 1008.0 |
| 20260905231805 | 35 | 88 | 9.7 | 14.5 | 0.00 | 0.00 | 0.00 | 48 | 1007.6 |
| 20260905231306 | 35 | 60 | 8.0 | 14.5 | 0.00 | 0.00 | 0.00 | 48 | 1007.6 |
| 20260905230805 | 35 | 30 | 11.3 | 16.1 | 0.00 | 0.00 | 0.00 | 48 | 1007.6 |
| 20260905230305 | 35 | 51 | 4.8 | 17.7 | 0.00 | 0.00 | 0.00 | 48 | 1007.3 |
| 20260905225805 | 35 | 49 | 11.3 | 17.7 | 0.00 | 0.00 | 0.00 | 48 | 1007.3 |
| 20260905225306 | 35 | 65 | 6.4 | 12.9 | 0.00 | 0.00 | 0.00 | 48 | 1007.3 |
| 20260905224806 | 35 | 30 | 8.0 | 12.9 | 0.00 | 0.00 | 0.00 | 47 | 1007.3 |
| 20260905224305 | 35 | 112 | 4.8 | 14.5 | 0.00 | 0.00 | 0.00 | 47 | 1007.3 |
| 20260905223805 | 35 | 110 | 8.0 | 17.7 | 0.00 | 0.00 | 0.00 | 47 | 1007.3 |
| 20260905223305 | 35 | 48 | 11.3 | 17.7 | 0.00 | 0.00 | 0.00 | 46 | 1007.3 |
| 20260905222805 | 35 | 55 | 9.7 | 16.1 | 0.00 | 0.00 | 0.00 | 46 | 1007.3 |
| 20260905222306 | 35 | 180 | 0.0 | 16.1 | 0.00 | 0.00 | 0.00 | 47 | 1007.6 |
| 20260905221805 | 35 | 69 | 4.8 | 11.3 | 0.00 | 0.00 | 0.00 | 47 | 1007.3 |
| 20260905221305 | 36 | 26 | 0.0 | 9.7 | 0.00 | 0.00 | 0.00 | 46 | 1007.3 |
| 20260905220804 | 36 | 97 | 3.2 | 8.0 | 0.00 | 0.00 | 0.00 | 45 | 1007.6 |
| 20260905220305 | 36 | 47 | 3.2 | 8.0 | 0.00 | 0.00 | 0.00 | 44 | 1007.6 |
| 20260905215805 | 36 | 249 | 0.0 | 8.0 | 0.00 | 0.00 | 0.00 | 44 | 1007.6 |
| 20260905215306 | 36 | 276 | 4.8 | 8.0 | 0.00 | 0.00 | 0.00 | 45 | 1007.3 |
| 20260905214805 | 35 | 97 | 1.6 | 4.8 | 0.00 | 0.00 | 0.00 | 45 | 1008.0 |
| 20260905214305 | 36 | 60 | 1.6 | 3.2 | 0.00 | 0.00 | 0.00 | 45 | 1007.6 |
| 20260905213805 | 35 | 244 | 0.0 | 6.4 | 0.00 | 0.00 | 0.00 | 46 | 1007.6 |
| 20260905213305 | 35 | 154 | 1.6 | 9.7 | 0.00 | 0.00 | 0.00 | 47 | 1008.0 |
| 20260905212805 | 35 | 77 | 3.2 | 9.7 | 0.00 | 0.00 | 0.00 | 46 | 1008.0 |
| 20260905212306 | 35 | 100 | 9.7 | 14.5 | 0.00 | 0.00 | 0.00 | 47 | 1008.0 |
| 20260905211805 | 35 | 96 | 4.8 | 14.5 | 0.00 | 0.00 | 0.00 | 48 | 1008.0 |
| 20260905211305 | 35 | 141 | 6.4 | 16.1 | 0.00 | 0.00 | 0.00 | 48 | 1008.0 |
| 20260905210805 | 35 | 76 | 11.3 | 16.1 | 0.00 | 0.00 | 0.00 | 48 | 1007.6 |
| 20260905210305 | 35 | 119 | 11.3 | 14.5 | 0.00 | 0.00 | 0.00 | 48 | 1008.0 |
| 20260905205805 | 35 | 123 | 8.0 | 11.3 | 0.00 | 0.00 | 0.00 | 48 | 1008.3 |
| 20260905205306 | 35 | 145 | 8.0 | 11.3 | 0.00 | 0.00 | 0.00 | 49 | 1008.0 |
| 20260905204805 | 35 | 173 | 4.8 | 11.3 | 0.00 | 0.00 | 0.00 | 48 | 1008.0 |
| 20260905204305 | 35 | 125 | 3.2 | 11.3 | 0.00 | 0.00 | 0.00 | 49 | 1008.0 |
| 20260905203805 | 34 | 118 | 6.4 | 16.1 | 0.00 | 0.00 | 0.00 | 49 | 1008.3 |
| 20260905203305 | 35 | 112 | 6.4 | 16.1 | 0.00 | 0.00 | 0.00 | 49 | 1008.0 |
| 20260905202805 | 35 | 101 | 9.7 | 14.5 | 0.00 | 0.00 | 0.00 | 49 | 1008.0 |
| 20260905202306 | 35 | 73 | 4.8 | 16.1 | 0.00 | 0.00 | 0.00 | 49 | 1008.3 |
| 20260905201805 | 35 | 82 | 8.0 | 16.1 | 0.00 | 0.00 | 0.00 | 49 | 1008.3 |
| 20260905201305 | 35 | 71 | 4.8 | 16.1 | 0.00 | 0.00 | 0.00 | 48 | 1008.3 |
| 20260905200805 | 35 | 31 | 3.2 | 14.5 | 0.00 | 0.00 | 0.00 | 47 | 1008.3 |
| 20260905200305 | 35 | 3 | 6.4 | 14.5 | 0.00 | 0.00 | 0.00 | 48 | 1008.7 |
| 20260905195805 | 35 | 327 | 8.0 | 11.3 | 0.00 | 0.00 | 0.00 | 48 | 1008.7 |
| 20260905195306 | 35 | 70 | 8.0 | 14.5 | 0.00 | 0.00 | 0.00 | 49 | 1008.7 |
| 20260905194805 | 34 | 71 | 6.4 | 24.1 | 0.00 | 0.00 | 0.00 | 49 | 1008.7 |
| 20260905194304 | 35 | 95 | 8.0 | 24.1 | 0.00 | 0.00 | 0.00 | 48 | 1009.0 |
| 20260905193803 | 35 | 121 | 17.7 | 24.1 | 0.00 | 0.00 | 0.00 | 46 | 1009.0 |
| 20260905193303 | 35 | 182 | 4.8 | 11.3 | 0.00 | 0.00 | 0.00 | 46 | 1009.0 |
| 20260905192804 | 35 | 188 | 6.4 | 11.3 | 0.00 | 0.00 | 0.00 | 45 | 1009.4 |
| 20260905192306 | 35 | 159 | 4.8 | 17.7 | 0.00 | 0.00 | 0.00 | 46 | 1009.4 |
| 20260905191805 | 34 | 79 | 8.0 | 17.7 | 0.00 | 0.00 | 0.00 | 48 | 1009.4 |
| 20260905191304 | 35 | 83 | 12.9 | 12.9 | 0.00 | 0.00 | 0.00 | 48 | 1009.4 |
| 20260905190804 | 35 | 176 | 4.8 | 12.9 | 0.00 | 0.00 | 0.00 | 48 | 1009.7 |
| 20260905190304 | 35 | 28 | 6.4 | 14.5 | 0.00 | 0.00 | 0.00 | 47 | 1009.7 |
| 20260905185804 | 35 | 80 | 6.4 | 17.7 | 0.00 | 0.00 | 0.00 | 47 | 1009.7 |
| 20260905185306 | 35 | 119 | 4.8 | 17.7 | 0.00 | 0.00 | 0.00 | 47 | 1009.7 |
| 20260905184804 | 35 | 177 | 3.2 | 12.9 | 0.00 | 0.00 | 0.00 | 48 | 1009.7 |
| 20260905184305 | 35 | 238 | 3.2 | 12.9 | 0.00 | 0.00 | 0.00 | 48 | 1009.7 |
| 20260905183804 | 34 | 123 | 1.6 | 12.9 | 0.00 | 0.00 | 0.00 | 49 | 1009.7 |
| 20260905183304 | 33 | 46 | 0.0 | 14.5 | 0.00 | 0.00 | 0.00 | 52 | 1010.1 |
| 20260905182804 | 33 | 7 | 9.7 | 19.3 | 0.00 | 0.00 | 0.00 | 52 | 1010.4 |
| 20260905182306 | 33 | 5 | 11.3 | 19.3 | 0.00 | 0.00 | 0.00 | 53 | 1010.1 |
| 20260905181804 | 34 | 53 | 14.5 | 16.1 | 0.00 | 0.00 | 0.00 | 51 | 1010.1 |
| 20260905181304 | 33 | 189 | 3.2 | 14.5 | 0.00 | 0.00 | 0.00 | 53 | 1010.1 |
| 20260905180804 | 33 | 98 | 8.0 | 14.5 | 0.00 | 0.00 | 0.00 | 53 | 1010.1 |
| 20260905180304 | 33 | 75 | 6.4 | 17.7 | 0.00 | 0.00 | 0.00 | 53 | 1010.4 |
| 20260905175804 | 33 | 119 | 8.0 | 17.7 | 0.00 | 0.00 | 0.00 | 54 | 1010.1 |
| 20260905175306 | 34 | 95 | 4.8 | 14.5 | 0.00 | 0.00 | 0.00 | 52 | 1010.1 |
| 20260905174804 | 34 | 9 | 6.4 | 14.5 | 0.00 | 0.00 | 0.00 | 53 | 1010.1 |
| 20260905174304 | 33 | 315 | 3.2 | 9.7 | 0.00 | 0.00 | 0.00 | 54 | 1010.1 |
| 20260905173803 | 33 | 40 | 8.0 | 14.5 | 0.00 | 0.00 | 0.00 | 52 | 1010.1 |
| 20260905173304 | 33 | 134 | 6.4 | 14.5 | 0.00 | 0.00 | 0.00 | 53 | 1010.1 |
| 20260905172804 | 33 | 334 | 4.8 | 11.3 | 0.00 | 0.00 | 0.00 | 52 | 1010.1 |
| 20260905172305 | 33 | 280 | 1.6 | 16.1 | 0.00 | 0.00 | 0.00 | 54 | 1010.4 |
| 20260905171803 | 33 | 97 | 6.4 | 16.1 | 0.00 | 0.00 | 0.00 | 55 | 1010.4 |
| 20260905171304 | 33 | 110 | 11.3 | 16.1 | 0.00 | 0.00 | 0.00 | 54 | 1010.4 |
| 20260905170804 | 33 | 68 | 11.3 | 16.1 | 0.00 | 0.00 | 0.00 | 55 | 1010.4 |
| 20260905170304 | 32 | 88 | 8.0 | 11.3 | 0.00 | 0.00 | 0.00 | 57 | 1010.8 |
| 20260905165804 | 33 | 307 | 4.8 | 12.9 | 0.00 | 0.00 | 0.00 | 56 | 1010.4 |
| 20260905165306 | 33 | 39 | 8.0 | 12.9 | 0.00 | 0.00 | 0.00 | 56 | 1010.8 |
| 20260905164804 | 32 | 142 | 9.7 | 16.1 | 0.00 | 0.00 | 0.00 | 57 | 1010.8 |
| 20260905164304 | 32 | 103 | 8.0 | 16.1 | 0.00 | 0.00 | 0.00 | 58 | 1011.1 |
| 20260905163804 | 33 | 26 | 8.0 | 9.7 | 0.00 | 0.00 | 0.00 | 55 | 1010.8 |
| 20260905163304 | 32 | 243 | 1.6 | 12.9 | 0.00 | 0.00 | 0.00 | 58 | 1010.8 |
| 20260905162803 | 32 | 186 | 3.2 | 12.9 | 0.00 | 0.00 | 0.00 | 60 | 1010.8 |
| 20260905162306 | 32 | 68 | 6.4 | 11.3 | 0.00 | 0.00 | 0.00 | 59 | 1010.8 |
| 20260905161804 | 33 | 6.4 | 8.0 | 0.00 | 0.00 | 0.00 | 59 | 1010.8 | |
| 20260905161304 | 31 | 244 | 3.2 | 14.5 | 0.00 | 0.00 | 0.00 | 62 | 1011.1 |
| 20260905160804 | 31 | 58 | 6.4 | 14.5 | 0.00 | 0.00 | 0.00 | 63 | 1011.5 |
| 20260905160304 | 31 | 38 | 11.3 | 12.9 | 0.00 | 0.00 | 0.00 | 63 | 1011.1 |
| 20260905155804 | 31 | 73 | 4.8 | 9.7 | 0.00 | 0.00 | 0.00 | 62 | 1011.5 |
| 20260905155306 | 32 | 357 | 4.8 | 8.0 | 0.00 | 0.00 | 0.00 | 61 | 1011.5 |
| 20260905154803 | 31 | 195 | 1.6 | 8.0 | 0.00 | 0.00 | 0.00 | 63 | 1011.8 |
| 20260905154304 | 31 | 298 | 1.6 | 9.7 | 0.00 | 0.00 | 0.00 | 64 | 1011.5 |
| 20260905153804 | 30 | 7 | 3.2 | 9.7 | 0.00 | 0.00 | 0.00 | 65 | 1011.5 |
| 20260905153304 | 31 | 330 | 8.0 | 11.3 | 0.00 | 0.00 | 0.00 | 65 | 1011.5 |
| 20260905152804 | 30 | 337 | 8.0 | 11.3 | 0.00 | 0.00 | 0.00 | 65 | 1011.5 |
| 20260905152306 | 30 | 349 | 3.2 | 14.5 | 0.00 | 0.00 | 0.00 | 66 | 1011.5 |
| 20260905151804 | 30 | 26 | 8.0 | 14.5 | 0.00 | 0.00 | 0.00 | 67 | 1011.5 |
| 20260905151304 | 31 | 33 | 11.3 | 11.3 | 0.00 | 0.00 | 0.00 | 66 | 1011.5 |
| 20260905150803 | 30 | 337 | 6.4 | 9.7 | 0.00 | 0.00 | 0.00 | 68 | 1011.1 |
| 20260905150304 | 31 | 55 | 4.8 | 9.7 | 0.00 | 0.00 | 0.00 | 67 | 1011.1 |
| 20260905145804 | 31 | 349 | 3.2 | 8.0 | 0.00 | 0.00 | 0.00 | 66 | 1011.1 |
| 20260905145306 | 32 | 336 | 3.2 | 8.0 | 0.00 | 0.00 | 0.00 | 64 | 1011.1 |
| 20260905144803 | 32 | 203 | 3.2 | 4.8 | 0.00 | 0.00 | 0.00 | 65 | 1011.1 |
| 20260905144303 | 30 | 194 | 0.0 | 4.8 | 0.00 | 0.00 | 0.00 | 69 | 1011.1 |
| 20260905143805 | 30 | 224 | 3.2 | 6.4 | 0.00 | 0.00 | 0.00 | 72 | 1011.5 |
| 20260905143303 | 30 | 253 | 4.8 | 6.4 | 0.00 | 0.00 | 0.00 | 69 | 1011.5 |
| 20260905142804 | 31 | 207 | 3.2 | 4.8 | 0.00 | 0.00 | 0.00 | 68 | 1011.8 |
| 20260905142306 | 30 | 198 | 0.0 | 6.4 | 0.00 | 0.00 | 0.00 | 72 | 1011.5 |
| 20260905141804 | 30 | 252 | 1.6 | 6.4 | 0.00 | 0.00 | 0.00 | 72 | 1011.8 |
| 20260905141304 | 30 | 235 | 4.8 | 6.4 | 0.00 | 0.00 | 0.00 | 70 | 1011.5 |
| 20260905140805 | 30 | 278 | 0.0 | 6.4 | 0.00 | 0.00 | 0.00 | 70 | 1011.8 |
| 20260905140304 | 30 | 161 | 0.0 | 6.4 | 0.00 | 0.00 | 0.00 | 70 | 1011.8 |
| 20260905135803 | 31 | 136 | 4.8 | 6.4 | 0.00 | 0.00 | 0.00 | 66 | 1011.5 |
| 20260905135306 | 30 | 203 | 0.0 | 4.8 | 0.00 | 0.00 | 0.00 | 69 | 1011.8 |
| 20260905134803 | 30 | 160 | 1.6 | 4.8 | 0.00 | 0.00 | 0.00 | 69 | 1011.8 |
| 20260905134304 | 29 | 189 | 3.2 | 4.8 | 0.00 | 0.00 | 0.00 | 69 | 1011.8 |
| 20260905133804 | 29 | 147 | 3.2 | 4.8 | 0.00 | 0.00 | 0.00 | 68 | 1011.5 |
| 20260905133304 | 28 | 147 | 4.8 | 4.8 | 0.00 | 0.00 | 0.00 | 73 | 1011.8 |
| 20260905132804 | 28 | 103 | 3.2 | 4.8 | 0.00 | 0.00 | 0.00 | 76 | 1011.8 |
| 20260905132306 | 28 | 120 | 1.6 | 4.8 | 0.00 | 0.00 | 0.00 | 77 | 1011.8 |
| 20260905131803 | 27 | 136 | 3.2 | 4.8 | 0.00 | 0.00 | 0.00 | 78 | 1011.8 |
| 20260905131304 | 27 | 160 | 3.2 | 4.8 | 0.00 | 0.00 | 0.00 | 78 | 1011.8 |
| 20260905130803 | 27 | 186 | 1.6 | 6.4 | 0.00 | 0.00 | 0.00 | 80 | 1011.8 |
| 20260905130304 | 27 | 108 | 1.6 | 9.7 | 0.00 | 0.00 | 0.00 | 80 | 1011.8 |
| 20260905125803 | 26 | 230 | 4.8 | 9.7 | 0.00 | 0.00 | 0.00 | 84 | 1012.1 |
| 20260905125306 | 25 | 140 | 4.8 | 11.3 | 0.00 | 0.00 | 0.00 | 86 | 1012.1 |
| 20260905124804 | 25 | 98 | 4.8 | 11.3 | 0.00 | 0.00 | 0.00 | 86 | 1012.1 |
| 20260905124304 | 25 | 72 | 8.0 | 11.3 | 0.00 | 0.00 | 0.00 | 87 | 1012.1 |
| 20260905123803 | 25 | 183 | 3.2 | 11.3 | 0.00 | 0.00 | 0.00 | 89 | 1012.1 |
| 20260905123304 | 25 | 95 | 6.4 | 12.9 | 0.00 | 0.00 | 0.00 | 89 | 1011.8 |
| 20260905122804 | 25 | 81 | 6.4 | 12.9 | 0.00 | 0.00 | 0.00 | 89 | 1012.1 |
| 20260905122306 | 25 | 84 | 8.0 | 11.3 | 0.00 | 0.00 | 0.00 | 90 | 1011.8 |
| 20260905121803 | 25 | 89 | 8.0 | 11.3 | 0.00 | 0.00 | 0.00 | 90 | 1011.8 |
| 20260905121304 | 25 | 99 | 6.4 | 9.7 | 0.00 | 0.00 | 0.00 | 90 | 1012.1 |
| 20260905120804 | 25 | 106 | 8.0 | 9.7 | 0.00 | 0.00 | 0.00 | 90 | 1011.8 |
| 20260905120303 | 25 | 112 | 6.4 | 8.0 | 0.00 | 0.00 | 0.00 | 90 | 1011.8 |
| 20260905115804 | 25 | 112 | 6.4 | 8.0 | 0.00 | 0.00 | 0.00 | 90 | 1011.8 |
| 20260905115306 | 24 | 115 | 6.4 | 8.0 | 0.00 | 0.00 | 0.00 | 91 | 1011.8 |
| 20260905114803 | 24 | 115 | 4.8 | 8.0 | 0.00 | 0.00 | 0.00 | 90 | 1011.8 |
| 20260905114304 | 24 | 111 | 6.4 | 9.7 | 0.00 | 0.00 | 0.00 | 91 | 1011.5 |
| 20260905113803 | 24 | 126 | 6.4 | 9.7 | 0.00 | 0.00 | 0.00 | 92 | 1011.5 |
| 20260905113303 | 23 | 92 | 8.0 | 9.7 | 0.00 | 0.00 | 0.00 | 92 | 1011.5 |
| 20260905112803 | 23 | 76 | 4.8 | 8.0 | 0.00 | 0.00 | 0.00 | 92 | 1011.1 |
| 20260905112305 | 23 | 103 | 3.2 | 8.0 | 0.00 | 0.00 | 0.00 | 92 | 1011.1 |
| 20260905111803 | 23 | 56 | 4.8 | 8.0 | 0.00 | 0.00 | 0.00 | 91 | 1011.5 |
| 20260905111304 | 23 | 79 | 4.8 | 8.0 | 0.00 | 0.00 | 0.00 | 92 | 1011.5 |
| 20260905110804 | 23 | 103 | 4.8 | 9.7 | 0.00 | 0.00 | 0.00 | 92 | 1011.5 |
| 20260905110303 | 23 | 101 | 6.4 | 9.7 | 0.00 | 0.00 | 0.00 | 92 | 1011.1 |
| 20260905105804 | 23 | 86 | 8.0 | 9.7 | 0.00 | 0.00 | 0.00 | 91 | 1011.1 |
| 20260905105306 | 23 | 118 | 3.2 | 8.0 | 0.00 | 0.00 | 0.00 | 91 | 1011.1 |
| 20260905104804 | 23 | 356 | 1.6 | 9.7 | 0.00 | 0.00 | 0.00 | 91 | 1011.1 |
| 20260905104304 | 23 | 114 | 3.2 | 12.9 | 0.00 | 0.00 | 0.00 | 92 | 1010.8 |
| 20260905103804 | 23 | 33 | 6.4 | 12.9 | 0.00 | 0.00 | 0.00 | 92 | 1011.1 |
| 20260905103304 | 24 | 27 | 4.8 | 4.8 | 0.00 | 0.00 | 0.00 | 91 | 1011.1 |
| 20260905102804 | 24 | 28 | 0.0 | 9.7 | 0.00 | 0.00 | 0.00 | 91 | 1010.8 |
| 20260905102306 | 24 | 114 | 0.0 | 9.7 | 0.00 | 0.00 | 0.00 | 92 | 1010.8 |
| 20260905101804 | 24 | 160 | 3.2 | 6.4 | 0.00 | 0.00 | 0.00 | 91 | 1010.8 |
| 20260905101304 | 24 | 271 | 0.0 | 8.0 | 0.00 | 0.00 | 0.00 | 91 | 1010.8 |
| 20260905100803 | 24 | 246 | 4.8 | 8.0 | 0.00 | 0.00 | 0.00 | 92 | 1010.8 |
| 20260905100303 | 24 | 207 | 6.4 | 8.0 | 0.00 | 0.00 | 0.00 | 92 | 1010.8 |
| 20260905095804 | 24 | 195 | 6.4 | 8.0 | 0.00 | 0.00 | 0.00 | 92 | 1010.8 |
| 20260905095306 | 24 | 40 | 0.0 | 8.0 | 0.00 | 0.00 | 0.00 | 92 | 1010.4 |
| 20260905094804 | 24 | 18 | 3.2 | 9.7 | 0.00 | 0.00 | 0.00 | 92 | 1010.8 |
| 20260905094303 | 24 | 206 | 3.2 | 16.1 | 0.00 | 0.00 | 0.00 | 92 | 1010.8 |
| 20260905093803 | 24 | 224 | 6.4 | 16.1 | 0.00 | 0.00 | 0.00 | 92 | 1010.4 |
| 20260905093305 | 24 | 212 | 6.4 | 9.7 | 0.00 | 0.00 | 0.00 | 91 | 1010.8 |
| 20260905092804 | 24 | 219 | 4.8 | 8.0 | 0.00 | 0.00 | 0.00 | 90 | 1010.8 |
| 20260905092306 | 25 | 207 | 4.8 | 6.4 | 0.00 | 0.00 | 0.00 | 88 | 1010.4 |
| 20260905091803 | 25 | 204 | 4.8 | 6.4 | 0.00 | 0.00 | 0.00 | 87 | 1010.4 |
| 20260905091304 | 25 | 193 | 3.2 | 6.4 | 0.00 | 0.00 | 0.00 | 86 | 1010.4 |
| 20260905090804 | 25 | 158 | 4.8 | 6.4 | 0.00 | 0.00 | 0.00 | 85 | 1010.4 |
| 20260905090303 | 25 | 201 | 3.2 | 4.8 | 0.00 | 0.00 | 0.00 | 84 | 1010.4 |
| 20260905085804 | 25 | 205 | 1.6 | 8.0 | 0.00 | 0.00 | 0.00 | 84 | 1010.4 |
| 20260905085305 | 25 | 188 | 4.8 | 8.0 | 0.00 | 0.00 | 0.00 | 83 | 1010.4 |
| 20260905084804 | 25 | 148 | 3.2 | 6.4 | 0.00 | 0.00 | 0.00 | 84 | 1010.1 |
| 20260905084304 | 25 | 134 | 4.8 | 4.8 | 0.00 | 0.00 | 0.00 | 84 | 1010.4 |
| 20260905083804 | 25 | 157 | 1.6 | 6.4 | 0.00 | 0.00 | 0.00 | 84 | 1010.1 |
| 20260905083303 | 25 | 132 | 3.2 | 6.4 | 0.00 | 0.00 | 0.00 | 83 | 1010.4 |
| 20260905082803 | 25 | 108 | 3.2 | 6.4 | 0.00 | 0.00 | 0.00 | 84 | 1010.4 |
| 20260905082307 | 25 | 89 | 4.8 | 6.4 | 0.00 | 0.00 | 0.00 | 84 | 1010.4 |
| 20260905081804 | 25 | 78 | 3.2 | 4.8 | 0.00 | 0.00 | 0.00 | 83 | 1010.4 |
| 20260905081304 | 25 | 95 | 1.6 | 8.0 | 0.00 | 0.00 | 0.00 | 84 | 1010.4 |
| 20260905080803 | 24 | 94 | 4.8 | 11.3 | 0.00 | 0.00 | 0.00 | 85 | 1010.4 |
| 20260905080303 | 24 | 81 | 4.8 | 14.5 | 0.00 | 0.00 | 0.00 | 86 | 1010.4 |
| 20260905075804 | 24 | 65 | 9.7 | 14.5 | 0.00 | 0.00 | 0.00 | 86 | 1010.4 |
| 20260905075306 | 24 | 62 | 12.9 | 14.5 | 0.00 | 0.00 | 0.00 | 86 | 1010.4 |
| 20260905074804 | 25 | 40 | 11.3 | 11.3 | 0.00 | 0.00 | 0.00 | 85 | 1010.1 |
| 20260905074303 | 25 | 60 | 8.0 | 9.7 | 0.00 | 0.00 | 0.00 | 83 | 1010.4 |
| 20260905073804 | 25 | 72 | 8.0 | 8.0 | 0.00 | 0.00 | 0.00 | 83 | 1010.4 |
| 20260905073303 | 25 | 71 | 4.8 | 6.4 | 0.00 | 0.00 | 0.00 | 82 | 1010.4 |
| 20260905072803 | 25 | 104 | 1.6 | 4.8 | 0.00 | 0.00 | 0.00 | 82 | 1010.4 |
| 20260905072306 | 25 | 109 | 3.2 | 6.4 | 0.00 | 0.00 | 0.00 | 83 | 1010.1 |
| 20260905071804 | 25 | 83 | 3.2 | 8.0 | 0.00 | 0.00 | 0.00 | 83 | 1010.4 |
| 20260905071304 | 25 | 85 | 4.8 | 8.0 | 0.00 | 0.00 | 0.00 | 83 | 1010.4 |
| 20260905070804 | 25 | 68 | 4.8 | 8.0 | 0.00 | 0.00 | 0.00 | 82 | 1010.4 |
| 20260905070303 | 25 | 95 | 4.8 | 8.0 | 0.00 | 0.00 | 0.00 | 82 | 1010.8 |
| 20260905065804 | 25 | 110 | 3.2 | 8.0 | 0.00 | 0.00 | 0.00 | 82 | 1010.4 |
| 20260905065306 | 25 | 69 | 4.8 | 8.0 | 0.00 | 0.00 | 0.00 | 82 | 1010.8 |